Location: Maiden
(35.5760°N, 81.2120°W)
Time: 05:11:53
(UTC-04:00)

Daily predictions for brighter satellites

Satellite Brightness Start Highest point End
(mag) Time Altitude Azimuth Time Altitude Azimuth Time Altitude Azimuth
CENTAUR R/B 3.8 00:45:59 10° NNW 00:51:57 48° N 00:51:57 48° N
ATLAS 3B R/B 4.4 01:08:35 10° NW 01:10:55 24° NW 01:10:55 24° NW
Milstar 3 Cent rocket 4.4 02:50:33 33° ESE 02:50:33 33° ESE 02:58:01 10° E
Resurs 1-4 Rocket 4.2 02:42:29 10° NNE 02:44:31 23° NE 02:44:31 23° NE
SL-16 R/B 3.6 02:54:23 40° NNE 02:54:23 40° NNE 02:58:34 10° N
CZ-2D R/B 3.8 02:57:17 10° NNE 02:59:59 30° NNE 02:59:59 30° NNE
Cosmos 2219 Rocket 3.9 03:07:21 10° N 03:12:09 27° ENE 03:13:22 25° E
COSMOS 2428 4.1 03:10:07 10° N 03:15:15 33° ENE 03:15:35 33° ENE
USA 267 4.2 03:11:08 10° NNE 03:16:48 39° NNW 03:16:48 39° NNW
Cosmos 2227 Rocket 4.3 03:19:07 17° E 03:19:08 17° E 03:22:42 10° ENE
ARIANE 5 R/B 4.2 03:15:29 10° NNE 03:18:48 30° ENE 03:18:48 30° ENE
Cosmos 2360 Rocket 4.3 03:19:20 10° NNW 03:20:36 17° NNW 03:20:36 17° NNW
SeaSat 1 4.1 03:26:47 30° ENE 03:26:56 31° ENE 03:31:12 10° N
Cosmos 2341 Rocket 4.4 03:36:04 61° N 03:36:04 61° N 03:41:15 10° N
USA 234 3.8 03:42:02 10° ESE 03:48:23 56° NE 03:54:44 10° NW
Cosmos 2237 Rocket 4.3 03:48:44 10° N 03:53:20 25° ENE 03:57:54 10° ESE
Cosmos 2297 Rocket 3.1 03:57:28 39° ESE 03:57:55 39° ESE 04:03:07 10° NE
Cosmos 2333 Rocket 2.4 03:53:49 10° NNW 03:59:34 68° ENE 03:59:52 66° E
Cosmos 864 Rocket 4.5 04:00:00 71° ESE 04:00:20 73° E 04:06:30 10° N
ADEOS II 2.1 04:06:04 10° NNE 04:11:03 77° ENE 04:11:03 77° ENE
Cosmos 1536 Rocket 4.4 04:12:08 50° ENE 04:12:08 50° ENE 04:15:53 10° NNE
Cosmos 1066 Rocket 4.1 04:19:11 79° WNW 04:19:11 79° WNW 04:24:49 10° N
Cosmos 1025 Rocket 3.7 04:23:38 50° ESE 04:23:49 50° E 04:28:04 10° NNE
UNKNOWN OBJECT B 3.8 04:20:43 10° NNE 04:23:23 43° NNE 04:23:23 43° NNE
Cosmos 1959 Rocket 4.4 04:24:21 62° W 04:24:37 63° W 04:30:50 10° N
Cosmos 2218 Rocket 4.0 04:26:12 59° W 04:26:24 60° W 04:32:37 10° N
Resurs 1-4 Rocket 3.9 04:23:18 10° NNW 04:25:36 18° NW 04:25:36 18° NW
CZ-2D R/B 4.0 04:23:03 10° N 04:26:38 56° N 04:26:38 56° N
Cosmos 2082 4.4 04:26:24 34° SSE 04:28:18 47° ESE 04:33:39 10° NNE
SL-16 R/B 4.3 04:39:28 15° WNW 04:39:28 15° WNW 04:40:59 10° NW
Cosmos 2366 rocket 4.1 04:39:07 49° W 04:39:34 50° W 04:45:32 10° N
ERBS 4.4 04:37:40 10° NNW 04:40:41 28° NE 04:43:41 10° ESE
CZ-2D R/B 4.1 04:39:08 10° NNW 04:41:18 15° NW 04:41:18 15° NW
Cosmos 1842 3.7 04:42:28 53° ESE 04:42:54 56° E 04:46:43 10° NNE
CBERS 1 LM4 rocket 4.5 04:42:22 10° N 04:47:35 77° WNW 04:49:01 49° SSW
OAO 3 Copernicus 4.3 04:49:44 57° SSW 04:50:24 63° SSE 04:55:24 10° E
Cosmos 2219 3.9 04:50:36 34° WNW 04:51:06 35° WNW 04:56:14 10° N
H-2A R/B 2.4 04:48:10 10° N 04:52:37 79° WNW 04:53:15 63° SW
Cosmos 2219 Rocket 2.9 04:50:58 10° NW 04:54:57 33° WNW 04:54:57 33° WNW
ARIANE 5 R/B 3.8 04:54:58 10° NNW 04:59:08 25° WNW 04:59:08 25° WNW
COSMOS 2428 3.9 04:54:26 10° NW 04:57:29 25° WNW 04:57:29 25° WNW
Cosmos 1733 4.4 04:56:35 10° N 05:00:12 42° E 05:03:47 10° SSE
OAO 3 Rocket 3.1 05:00:41 48° WSW 05:02:04 81° S 05:07:00 10° E
Cosmos 2227 Rocket 2.4 05:00:57 40° WSW 05:02:39 55° WNW 05:08:13 10° NNE
SeaSat 1 3.8 05:06:31 22° WNW 05:06:31 22° WNW 05:08:40 10° NW
ADEOS 3.5 05:00:46 10° N 05:05:58 71° WNW 05:08:27 31° SSW
Cosmos 1980 3.6 05:00:34 10° NNW 05:06:14 73° WSW 05:11:52 10° SSE
Cosmos 332 Rocket 3.9 05:05:16 44° WSW 05:06:27 56° WNW 05:11:12 10° N
PSLV R/B 3.8 05:06:54 33° S 05:08:39 65° WSW 05:12:49 10° NNW
RUBIN 8/PSLV 4.4 05:07:24 10° N 05:11:43 73° WNW 05:13:31 34° SSW
BREEZE M DEB (TANK) 3.9 05:00:16 10° NW 05:13:16 81° SW 05:16:55 10° SE
Cosmos 1727 Rocket 4.3 05:09:06 10° NNW 05:14:56 43° W 05:18:27 22° SSW
Cosmos 1354 Rocket 4.4 05:10:01 10° N 05:15:13 65° ENE 05:20:24 10° SSE
Cosmos 1441 Rocket 3.6 05:11:47 10° N 05:15:42 67° E 05:19:32 10° SSE
Milstar 3 4.4 05:14:17 24° SW 05:18:17 31° SSW 05:31:07 10° SE
IDEFIX/ARIANE 42P 3.0 05:16:06 10° NNE 05:21:16 62° E 05:26:27 10° S
Cosmos 1378 3.2 05:20:24 39° SW 05:21:22 52° W 05:25:01 10° N
ATLAS 2A CENTAUR R/B 3.6 05:22:00 22° SW 05:22:00 22° SW 05:25:13 10° SSE
Cosmos 1892 Rocket 4.3 05:18:43 10° S 05:22:54 53° E 05:27:08 10° NNE
Genesis I 3.2 05:22:18 29° SSW 05:24:18 89° ESE 05:28:25 10° NNE
Milstar 3 Cent rocket 4.4 05:19:24 22° WSW 05:26:18 60° S 05:46:19 10° ESE
Cosmos 921 Rocket 4.4 05:29:05 21° W 05:29:49 22° WNW 05:33:17 10° NNW
GPS 2-04 Rocket1 2.7 05:28:52 30° W 05:30:29 55° SSW 05:34:25 10° ESE
Cosmos 1953 3.7 05:27:02 10° N 05:30:48 40° E 05:34:32 10° SSE
PSLV R/B 3.6 05:27:11 10° N 05:31:21 55° WNW 05:34:14 19° SSW
USA 234 3.7 05:25:35 10° S 05:31:28 36° SW 05:37:24 10° WNW
Cosmos 371 Rocket 4.4 05:33:26 21° W 05:35:03 26° WNW 05:39:05 10° N
Cosmos 2123 Rocket 4.2 05:29:34 10° N 05:35:56 78° E 05:42:14 10° S
Cosmos 1000 Rocket 4.5 05:30:24 10° NNW 05:36:25 59° W 05:42:25 10° S
Cosmos 2237 Rocket 2.5 05:32:15 10° NW 05:37:30 40° WSW 05:42:41 10° S
Cosmos 1766 4.5 05:35:16 10° NW 05:38:27 23° W 05:39:01 22° WSW
Cosmos 1470 2.9 05:36:00 10° N 05:39:52 77° E 05:43:44 10° S
Cosmos 1805 4.3 05:36:44 10° NW 05:39:58 25° W 05:41:01 22° WSW
NOSS 2-1 (C) 2.9 05:38:51 20° SW 05:41:09 81° WNW 05:44:46 10° NNE
Cosmos 2297 Rocket 3.4 05:39:18 18° W 05:42:01 26° WNW 05:46:41 10° N
Cosmos 1821 Rocket 4.4 05:37:04 14° SSW 05:42:17 44° W 05:48:22 10° N
Cosmos 2333 Rocket 4.0 05:40:22 10° WNW 05:41:45 13° W 05:41:45 13° W
NOSS 2-1 (D) 3.0 05:41:21 20° SW 05:43:42 73° WNW 05:47:19 10° NNE
Cosmos 1707 2.7 05:41:07 10° S 05:44:59 87° W 05:48:53 10° N
OAO 2 Rocket 4.1 05:43:06 17° W 05:46:34 36° SSW 05:51:21 10° SE
CZ-3 R/B 3.6 05:14:50 12° W 05:48:01 65° S 05:56:16 10° ESE
Shenzhou-11 Module 4.1 05:47:51 10° S 05:49:55 18° SE 05:51:58 10° E
Cosmos 44 3.2 05:45:11 10° NNW 05:50:01 82° ENE 05:54:32 10° SSE
ADEOS II 4.0 05:48:44 10° NW 05:50:17 11° WNW 05:51:51 10° W
Cosmos 1503 Rocket 4.2 05:48:11 10° NNW 05:53:09 48° WSW 05:58:05 10° S
SL-16 R/B 2.2 05:50:05 10° NNW 05:55:48 81° WSW 06:01:27 10° SSE
CZ-4C R/B 2.5 05:51:38 10° SSW 05:56:23 60° ESE 06:01:51 10° NE
SME Rocket 3.7 05:53:03 10° N 05:56:23 31° WNW 05:59:46 11° SW
Meteor PRIRODA 4.2 05:53:40 10° NNE 05:57:19 60° E 06:00:54 10° S
BREEZE M DEB (TANK) 4.0 05:53:47 10° WNW 05:57:33 70° SSW 06:21:16 10° SE
PAYLOAD A 4.1 05:53:55 10° NNE 05:59:14 89° ESE 06:04:19 10° SSW
Helios 1A Rocket 2.8 05:57:25 10° N 06:01:30 75° WNW 06:05:31 10° SSW
BREEZE-M DEB (TANK) 3.0 06:00:48 11° SW 06:03:40 81° SE 06:13:09 10° NE
Cosmos 1606 Rocket 3.9 05:59:54 10° NNW 06:04:09 45° W 06:08:24 10° SSW
USA 229 DEB 4.3 05:58:19 10° NW 06:05:05 41° WSW 06:11:59 10° S
USA 229 4.3 05:58:24 10° NW 06:05:11 41° WSW 06:12:07 10° S
NOSS 3-1 (A) 4.2 05:59:57 10° NW 06:07:51 76° WSW 06:16:33 10° SSE
Cosmos 1758 4.2 06:11:37 10° NNW 06:15:11 29° W 06:18:43 10° SSW
ERBS 3.8 06:14:28 10° WNW 06:16:55 19° WSW 06:19:22 10° SSW
CZ-2C R/B 2.2 06:13:01 10° N 06:17:35 77° WNW 06:22:09 10° SSW
NOSS 3-1 (C) 4.4 06:11:07 10° NW 06:18:39 46° WSW 06:26:51 10° S
CZ-4B DEB 4.4 06:13:40 10° NNE 06:19:16 80° ESE 06:24:49 10° S
CZ-4B R/B 3.4 06:16:34 10° N 06:19:55 34° WNW 06:23:23 10° SW
